Location: Casilda
(33.0440°S, 61.1680°W)
Time: 18:12:37
(UTC-03:00)

ISS - Pass Details

Date: 28 November 2020
Orbit: 418 x 420 km, 51.6° (Epoch: 04 December)

Event Time Altitude Azimuth Distance (km) Brightness Sun altitude
Exits shadow 04:02:11 51° 244° (WSW) 543 -3.4 -19.3°
Maximum altitude 04:02:28 53° 221° (SW) 529 -3.3 -19.2°
Drops below altitude 10° 04:05:51 10° 143° (SE) 1,527 0.3 -18.7°
Sets 04:08:00 0° 138° (SE) 2,399 1.8 -18.4°
